Location: Br�ttisellen
(47.4227°N, 8.6287°E)
Time: 00:49:28
(UTC+00:00)

SL-08 RB Rocket - Pass Details

Date: 09 April 2020
Orbit: 646 x 685 km, 97.8° (Epoch: 30 May)

Event Time Altitude Azimuth Distance (km) Brightness Sun altitude
Exits shadow 18:56:18 - 156° (SSE) 2,789 6.5 -8.8°
Reaches altitude 10° 18:58:02 10° 154° (SSE) 2,085 5.8 -9.1°
Maximum altitude 19:02:33 64° 73° (ENE) 745 3.8 -9.8°
Drops below altitude 10° 19:07:08 10° 352° (N) 2,125 6.8 -10.5°
Sets 19:09:25 0° 350° (N) 3,049 7.6 -10.8°
